Voltar ao catálogo

ICEYE-X53

AtivoCiênciaSSO
NORAD 64584·PAYLOAD·🇫🇮 Finland

Lançado Jun 23, 2025 de Vandenberg Space Force Base

Loading…

Próximas Passagens (próximas 24 horas)

TLE

AtualizadoSource: Space-Track

Época: Sep 14, 2026, 21:26 UTC

1 64584U 25135BJ  26257.89322530  .00005078  00000-0  40346-3 0  9997
2 64584  97.7315  14.2412 0001547 134.1919 225.9432 15.00905837 67536

Acompanhe ICEYE-X53 em tempo real com AllMySat

Download on the App Store